[[{"header":{"parameterUnit":"m.s-1","parameterCategory":1,"la1":30.2991,"la2":30.254,"lo1":-89.0895,"lo2":-89.0444,"dy":0.0017,"dx":0.0017,"nx":28,"ny":28,"refTime":"2025-11-15T09:00:00:Z","depth":0,"parameterNumber":2,"parameterNumberName":"U-component_of_WINDS"},"data":[0,0,0,0,0,0,0,0,0,0,0,0,0,0,0,0,0,0,0,0,0,0,0,0,0,0,0,0,0,0,0,0,0,0,0,0,0,0,0,0,0,0,0,0,0,0,0,0,0,0,0,0,0,0,0,0,0,0,-0.7183,-0.7183,0,-0.718,-0.718,-0.718,-0.7087,-0.7085,-0.7083,-0.708,-0.7078,-0.708,-0.7082,0,0,0,0,0,0,0,0,0,0,0,0,0,-0.7112,-0.7114,-0.7183,-0.7183,-0.7183,-0.718,-0.718,-0.718,-0.7088,-0.7085,-0.7082,-0.7079,-0.7077,-0.7079,-0.7082,0,0,0,0,0,0,0,0,0,0,0,0,0,-0.7129,-0.7114,-0.7183,-0.7137,-0.7133,-0.718,-0.718,-0.718,-0.7088,-0.7085,-0.7081,-0.7078,-0.7076,-0.7079,-0.7082,-0.7174,0,0,-0.7092,-0.7093,0,0,0,0,0,0,0,0,-0.7128,-0.7132,-0.7144,-0.714,-0.7136,-0.713,-0.7153,-0.7178,-0.7089,-0.7105,-0.708,-0.7076,-0.7098,-0.7099,-0.7106,-0.7173,-0.7173,-0.7092,-0.7094,-0.7096,-0.7097,0,0,0,0,0,0,0,-0.7127,-0.7132,-0.7182,-0.7144,-0.7139,-0.7117,-0.7115,-0.7158,-0.7122,-0.7104,-0.7097,-0.7098,-0.7095,-0.7104,-0.7106,-0.7173,-0.7092,-0.7095,-0.7097,-0.7098,-0.7316,-0.7319,0,0,0,0,0,0,-0.7132,-0.7131,-0.7182,-0.7182,-0.7123,-0.7121,-0.7119,-0.7136,-0.7121,-0.7115,-0.7101,-0.7093,-0.71,-0.7102,-0.7105,-0.7211,-0.7096,-0.7099,-0.7101,-0.7312,-0.7316,-0.7321,0,0,0,0,0,0,-0.7131,-0.7138,-0.7182,-0.7155,-0.7159,-0.7126,-0.7145,-0.7138,-0.7146,-0.7119,-0.7112,-0.7116,-0.7097,-0.7101,-0.7157,-0.721,-0.71,-0.7103,-0.7307,-0.7313,-0.7318,-0.7424,0,0,0,0,0,0,-0.713,-0.7138,-0.7172,-0.7156,-0.7161,-0.7234,-0.7148,-0.714,-0.7151,-0.7142,-0.7131,-0.7126,-0.7095,-0.7153,-0.7161,-0.7212,-0.7106,-0.7302,-0.731,-0.7317,-0.7416,-0.7433,-0.7447,0,0,0,0,0,-0.7127,-0.7202,-0.7174,-0.7181,-0.7202,-0.7238,-0.724,-0.7202,-0.7156,-0.719,-0.7173,-0.7126,-0.7203,-0.716,-0.7167,-0.7221,-0.7299,-0.7308,-0.7316,-0.7409,-0.7429,-0.7447,0,0,0,0,0,0,-0.7225,-0.7199,-0.7168,-0.724,-0.7242,-0.7222,-0.7264,-0.7225,-0.724,-0.7231,-0.7183,-0.7181,-0.7246,-0.7239,-0.7191,-0.7309,-0.7243,-0.7253,-0.731,-0.733,-0.7345,-0.7345,-0.7108,0,0,0,0,0,-0.7255,-0.7285,-0.7261,-0.7327,-0.7329,-0.7297,-0.7311,-0.7281,-0.7281,-0.7282,-0.7268,-0.7271,-0.7295,-0.7312,-0.7333,-0.7415,-0.7411,-0.7455,-0.7471,-0.7484,-0.7494,-0.7536,-0.7556,-0.7349,-0.7349,-0.7349,0,0,-0.7317,-0.7306,-0.7328,-0.7346,-0.7344,-0.7377,-0.7298,-0.7336,-0.736,-0.7287,-0.734,-0.7331,-0.733,-0.74,-0.7429,-0.7396,-0.755,-0.7495,-0.7506,-0.7508,-0.7547,-0.7567,-0.7584,-0.7355,-0.7354,-0.7353,0,0,-0.7446,-0.7442,-0.7495,-0.7495,-0.7493,-0.7471,-0.7485,-0.7471,-0.7462,-0.7514,-0.746,-0.7489,-0.7532,-0.7533,-0.754,-0.7672,-0.7629,-0.768,-0.7762,-0.7804,-0.782,-0.7835,-0.7881,-0.7899,-0.769,-0.769,-0.769,0,-0.7523,-0.757,-0.7528,-0.757,-0.758,-0.7516,-0.757,-0.7572,-0.7578,-0.7586,-0.7548,-0.7601,-0.7596,-0.7665,-0.7697,-0.7705,-0.7719,-0.768,-0.7821,-0.7835,-0.7848,-0.7892,-0.791,-0.7696,-0.7695,-0.7695,-0.7694,0,-0.7665,-0.7699,-0.7743,-0.7749,-0.7764,-0.7812,-0.7778,-0.7798,-0.7768,-0.775,-0.7804,-0.7796,-0.7815,-0.7829,-0.78,-0.7894,-0.7873,-0.783,-0.7762,-0.7874,-0.7915,-0.7932,-0.7705,-0.7703,-0.7701,-0.7699,0,0,-0.7855,-0.7838,-0.7855,-0.7857,-0.7851,-0.7876,-0.7922,-0.794,-0.7958,-0.7964,-0.8001,-0.804,-0.7999,-0.8007,-0.7978,-0.8015,-0.812,-0.7966,-0.7965,-0.7995,-0.8223,-0.8256,-0.8276,-0.8092,-0.8095,-0.8097,-0.8223,0,-0.798,-0.8056,-0.802,-0.8101,-0.8131,-0.8072,-0.8112,-0.8112,-0.8097,-0.8122,-0.8105,-0.8133,-0.8077,-0.8082,-0.8116,-0.81,-0.8165,-0.809,-0.8126,-0.8128,-0.8128,-0.8298,-0.8332,-0.8451,-0.8239,-0.8242,-0.8244,0,-0.8135,-0.8148,-0.8232,-0.822,-0.8231,-0.8268,-0.8282,-0.8305,-0.8305,-0.8292,-0.8301,-0.8264,-0.8308,-0.8242,-0.8303,-0.8253,-0.8266,-0.826,-0.8264,-0.8265,-0.8192,-0.8303,-0.8488,-0.8506,-0.8268,-0.8266,-0.8265,0,-0.8265,-0.8303,-0.8358,-0.8362,-0.835,-0.8377,-0.8373,-0.8369,-0.8383,-0.8395,-0.8403,-0.8421,-0.8431,-0.8446,-0.8414,-0.8369,-0.8479,-0.8411,-0.847,-0.8471,-0.8495,-0.8494,-0.8684,-0.8504,-0.8504,-0.8504,-0.8503,0,-0.8407,-0.8461,-0.8416,-0.845,-0.8508,-0.8467,-0.8526,-0.8516,-0.8514,-0.8545,-0.8495,-0.8525,-0.8482,-0.8508,-0.8484,-0.8538,-0.8543,-0.8533,-0.8526,-0.8538,-0.8539,-0.8545,-0.8536,-0.8508,-0.8507,-0.8506,-0.8506,0,-0.8561,-0.8533,-0.8589,-0.8574,-0.8571,-0.8615,-0.8602,-0.8633,-0.8615,-0.8655,-0.8662,-0.8634,-0.8662,-0.8633,-0.8659,-0.8643,-0.8716,-0.8697,-0.8716,-0.871,-0.877,-0.8765,-0.8971,-0.8996,-0.8801,-0.8803,-0.8804,0,-0.8654,-0.8694,-0.8683,-0.87,-0.8699,-0.8728,-0.8741,-0.8702,-0.8718,-0.8722,-0.8753,-0.8777,-0.8794,-0.8843,-0.8825,-0.8846,-0.8826,-0.8897,-0.8829,-0.8839,-0.8827,-0.8825,-0.8829,-0.8911,-0.8913,-0.8915,-0.8917,0,-0.8821,-0.8805,-0.8826,-0.8843,-0.8861,-0.8872,-0.8879,-0.8897,-0.8857,-0.8878,-0.8906,-0.892,-0.8947,-0.8972,-0.8987,-0.8984,-0.8944,-0.8939,-0.8953,-0.8965,-0.8974,-0.897,-0.8753,-0.8934,-0.8932,-0.8931,-0.893,-0.8929,-0.8947,-0.8979,-0.8977,-0.9002,-0.9004,-0.9012,-0.9041,-0.9026,-0.905,-0.9068,-0.9045,-0.908,-0.908,-0.9096,-0.9098,-0.9125,-0.9095,-0.9116,-0.9122,-0.9127,-0.9136,-0.8971,-0.9128,-0.9127,-0.9127,-0.9126,-0.9126,0,-0.9111,-0.9106,-0.913,-0.9142,-0.9163,-0.9124,-0.913,-0.915,-0.9182,-0.9185,-0.9203,-0.9236,-0.9261,-0.9245,-0.9266,-0.9291,-0.9274,-0.9298,-0.9295,-0.9295,-0.9162,-0.9147,-0.9312,-0.9312,-0.9312,-0.9312,-0.9312,-0.9312,-0.9198,-0.9252,-0.9236,-0.929,-0.9285,-0.9319,-0.9327,-0.9335,-0.9337,-0.9376,-0.9396,-0.9386,-0.9382,-0.9402,-0.9423,-0.9418,-0.9428,-0.9459,-0.9447,-0.9323,-0.9305,-0.9287,-0.9273,-0.9461,-0.9462,-0.9578,-0.9579,-0.958]},{"header":{"parameterUnit":"m.s-1","parameterCategory":1,"la1":30.2991,"la2":30.254,"lo1":-89.0895,"lo2":-89.0444,"dy":0.0017,"dx":0.0017,"nx":28,"ny":28,"refTime":"2025-11-15T09:00:00:Z","depth":0,"parameterNumber":3,"parameterNumberName":"V-component_of_WINDS"},"data":[0,0,0,0,0,0,0,0,0,0,0,0,0,0,0,0,0,0,0,0,0,0,0,0,0,0,0,0,0,0,0,0,0,0,0,0,0,0,0,0,0,0,0,0,0,0,0,0,0,0,0,0,0,0,0,0,0,0,2.0843,2.0843,0,2.081,2.081,2.0809,2.0853,2.0854,2.0856,2.0857,2.0817,2.0815,2.0812,0,0,0,0,0,0,0,0,0,0,0,0,0,2.0941,2.0939,2.0843,2.0843,2.0843,2.081,2.081,2.0809,2.0852,2.0854,2.0856,2.0858,2.0818,2.0815,2.0812,0,0,0,0,0,0,0,0,0,0,0,0,0,2.0902,2.0938,2.0843,2.086,2.0862,2.081,2.081,2.0809,2.0852,2.0854,2.0857,2.0859,2.0819,2.0815,2.0812,2.074,0,0,2.08,2.0798,0,0,0,0,0,0,0,0,2.0904,2.0898,2.0858,2.0859,2.086,2.0838,2.0829,2.0786,2.0851,2.0855,2.0857,2.086,2.0822,2.0818,2.0806,2.0738,2.0737,2.08,2.0797,2.0796,2.0795,0,0,0,0,0,0,0,2.0907,2.09,2.083,2.0858,2.0859,2.0868,2.0866,2.0821,2.0825,2.0855,2.0858,2.0854,2.0823,2.081,2.0806,2.0736,2.08,2.0796,2.0794,2.0793,2.0609,2.0607,0,0,0,0,0,0,2.0908,2.0902,2.0831,2.0829,2.0889,2.0865,2.0862,2.0843,2.0826,2.0826,2.0852,2.0856,2.0815,2.081,2.0804,2.072,2.0796,2.0792,2.079,2.0612,2.0609,2.0606,0,0,0,0,0,0,2.091,2.0901,2.0832,2.0866,2.0858,2.0861,2.0839,2.0841,2.0828,2.0824,2.0824,2.0838,2.0817,2.081,2.0757,2.072,2.079,2.0787,2.0615,2.0611,2.0607,2.0551,0,0,0,0,0,0,2.0913,2.0902,2.0875,2.0866,2.0856,2.0786,2.0837,2.0838,2.0822,2.0827,2.0811,2.0811,2.0818,2.0762,2.0753,2.0716,2.0784,2.0618,2.0613,2.0608,2.0556,2.0546,2.0537,0,0,0,0,0,2.0916,2.0859,2.0874,2.0865,2.0824,2.0784,2.0779,2.079,2.0819,2.0792,2.079,2.0811,2.0726,2.0756,2.0746,2.0707,2.062,2.0614,2.0609,2.0561,2.0548,2.0537,0,0,0,0,0,0,2.0862,2.0858,2.0874,2.0813,2.0799,2.0791,2.0757,2.0776,2.0752,2.0757,2.0771,2.0767,2.0711,2.0704,2.0738,2.0638,2.0677,2.0669,2.0644,2.0632,2.0623,2.0625,2.0781,0,0,0,0,0,2.0844,2.0813,2.0811,2.0757,2.075,2.0755,2.0738,2.0748,2.0733,2.0727,2.0721,2.0704,2.0673,2.0652,2.0624,2.0556,2.0553,2.0524,2.0515,2.0507,2.0499,2.0464,2.0451,2.0587,2.0587,2.0587,0,0,2.0804,2.0798,2.0778,2.0746,2.0736,2.0703,2.0749,2.0712,2.0687,2.072,2.0671,2.0665,2.0648,2.0587,2.056,2.0579,2.0461,2.05,2.0493,2.049,2.0456,2.0443,2.0432,2.0583,2.0584,2.0584,0,0,2.0715,2.0708,2.0663,2.0653,2.0639,2.0643,2.0632,2.0623,2.0621,2.0572,2.0597,2.0567,2.0514,2.0501,2.0487,2.0396,2.0415,2.0386,2.0335,2.03,2.0289,2.0279,2.0247,2.0235,2.0379,2.0378,2.0378,0,2.0667,2.062,2.0637,2.0599,2.0584,2.0616,2.057,2.0559,2.0535,2.0523,2.0546,2.0482,2.0472,2.0409,2.0387,2.0375,2.0363,2.0387,2.029,2.028,2.0272,2.0241,2.0228,2.0375,2.0375,2.0376,2.0376,0,2.0562,2.0529,2.0494,2.0473,2.0455,2.0413,2.0422,2.0401,2.0414,2.0416,2.0365,2.0355,2.0326,2.0312,2.0323,2.0251,2.0264,2.0288,2.0327,2.0255,2.0226,2.0214,2.037,2.0371,2.0372,2.0373,0,0,2.0436,2.0427,2.0414,2.0406,2.0393,2.0367,2.0327,2.03,2.0282,2.0265,2.0231,2.0187,2.021,2.0194,2.0204,2.0174,2.0103,2.0202,2.0202,2.0183,2.0023,2.0004,1.999,2.0116,2.0114,2.0112,2.0024,0,2.0348,2.028,2.0295,2.0227,2.0197,2.0228,2.0193,2.018,2.0181,2.0155,2.0155,2.0124,2.0157,2.0148,2.0119,2.0117,2.007,2.0124,2.0083,2.0081,2.0086,1.9975,1.9955,1.9872,2.0013,2.0011,2.001,0,2.0234,2.0216,2.0146,2.014,2.0128,2.0096,2.0074,2.0049,2.0036,2.0039,2.0023,2.004,1.9999,2.004,1.9984,2.002,2.0005,2.0001,1.9999,1.9994,2.004,1.9967,1.9846,1.9834,1.9992,1.9993,1.9995,0,2.0149,2.0107,2.006,2.0052,2.0044,2.0021,2.0016,2.0006,1.999,1.997,1.996,1.9934,1.992,1.99,1.9909,1.9939,1.9851,1.9893,1.9851,1.9851,1.983,1.9831,1.9704,1.9821,1.9821,1.9822,1.9822,0,2.0048,2.0004,2.0022,1.9993,1.9945,1.9963,1.9914,1.9912,1.9904,1.9874,1.9899,1.987,1.9885,1.9857,1.9864,1.9816,1.9809,1.981,1.9812,1.9807,1.9807,1.9796,1.9802,1.9818,1.9819,1.982,1.982,0,1.9944,1.9955,1.9906,1.9903,1.9902,1.9866,1.9864,1.9836,1.984,1.9803,1.9795,1.98,1.9769,1.9777,1.9742,1.9747,1.9687,1.9697,1.9692,1.9694,1.9651,1.9655,1.9512,1.9495,1.9624,1.9622,1.9621,0,1.9878,1.9846,1.9841,1.9824,1.9818,1.9791,1.9775,1.9792,1.9774,1.9758,1.9733,1.9705,1.9683,1.9632,1.9631,1.9605,1.9614,1.9566,1.961,1.9607,1.9613,1.9615,1.9611,1.9557,1.9555,1.9554,1.9553,0,1.9761,1.9768,1.9746,1.9725,1.9707,1.9691,1.9677,1.9662,1.9677,1.9656,1.9627,1.961,1.9576,1.9548,1.9524,1.9518,1.9537,1.954,1.9529,1.9523,1.9521,1.9521,1.9667,1.9542,1.9543,1.9544,1.9545,1.9545,1.9673,1.9646,1.9639,1.9614,1.9606,1.9593,1.9568,1.957,1.9546,1.9522,1.9533,1.9498,1.9487,1.9458,1.9449,1.9422,1.944,1.9423,1.9419,1.9415,1.941,1.9527,1.9417,1.9418,1.9418,1.9418,1.9419,0,1.9557,1.9555,1.9531,1.9513,1.9493,1.9516,1.9503,1.9484,1.9454,1.9443,1.9422,1.9388,1.9361,1.936,1.9335,1.9313,1.9321,1.9306,1.9307,1.9305,1.9395,1.9407,1.9299,1.9299,1.9299,1.9299,1.93,1.93,1.9494,1.9449,1.9456,1.9409,1.9406,1.9374,1.9365,1.9353,1.9345,1.9306,1.9285,1.9286,1.9279,1.9254,1.923,1.923,1.9219,1.92,1.9203,1.9287,1.9299,1.931,1.9321,1.9198,1.9197,1.9116,1.9115,1.9115]}]]